Regional Weather Roundup
Issued by NWS

Home | Current Version | Previous Version | Graphics & Text | Print | Product List | Glossary On
Versions: 1 2 3 4 5 6 7 8 9 10 11 12 13 14 15 16 17 18 19 20 21 22 23 24 25 26 27 28 29 30 31 32 33 34 35 36 37 38 39 40 41 42 43 44 45 46 47 48 49 50
000
ASUS43 KFSD 220802
RWRSD

WEATHER ROUNDUP FOR SOUTH DAKOTA
NATIONAL WEATHER SERVICE SIOUX FALLS SD
300 AM CDT MON MAY 22 2017

NOTE: "FAIR" INDICATES FEW OR NO CLOUDS BELOW 12,000 FEET WITH NO
SIGNIFICANT WEATHER AND/OR OBSTRUCTIONS TO VISIBILITY.


SDZ001>005-009-010-012>017-220900-
NORTHWEST AND NORTH CENTRAL SOUTH DAKOTA

CITY           SKY/WX    TMP DP  RH WIND       PRES   REMARKS
BUFFALO          N/A     49  44  83 NW30G36   29.97R
FAITH            N/A     48  42  80 W14       29.97F
MOBRIDGE       CLEAR     42  38  85 S3        29.88F
$$

SDZ012>016-024>037-041>051-057-063-072>074-220900-
SOUTHWEST AND SOUTH CENTRAL SOUTH DAKOTA

CITY           SKY/WX    TMP DP  RH WIND       PRES   REMARKS
RAPID CTY ARPT CLEAR     45  36  70 W6        30.05F
PIERRE         CLEAR     48  42  80 W12       29.95F
CUSTER         CLEAR     40  32  73 W8        30.12F
ELLSWORTH AFB  CLEAR     43  38  80 W9        30.03F
PHILIP         CLEAR     43  41  93 W9        30.00F
PINE RIDGE     CLEAR     46  42  86 W5        30.09F
SPEARFISH      MOCLDY    48  37  66 NW16G24   30.11R
WINNER         FAIR      50  44  80 W12       29.99F
$$

SDZ004>011-016>023-039-040-220900-
NORTHEAST SOUTH DAKOTA

CITY           SKY/WX    TMP DP  RH WIND       PRES   REMARKS
ABERDEEN       CLEAR     41  39  93 CALM      29.90S
WATERTOWN      CLEAR     37  35  92 SE3       29.88F
BROOKINGS      MOCLDY    45  42  89 CALM      29.92F
SISSETON         N/A     42  39  89 CALM      29.88F
$$

SDZ017-020-022-023-036>040-048>070-220900-
SOUTHEAST SOUTH DAKOTA

CITY           SKY/WX    TMP DP  RH WIND       PRES   REMARKS
SIOUX FALLS    CLOUDY    53  44  71 VRB6      29.93S
HURON          CLOUDY    46  44  93 SW5       29.92S
MITCHELL       CLOUDY    53  45  74 W12       29.94S
YANKTON        CLOUDY    57  44  62 S10       29.96F
$$

ABBREVIATIONS USED IN REMARKS
   TC - TEMPERATURE IN CELSIUS
  WCI - WIND CHILL INDEX
   HX - HEAT INDEX
  VSB - VISIBILITY





USA.gov is the U.S. government's official web portal to all federal, state and local government web resources and services.